Monroe, MI

11:52 AM EST on February 24, 2018 (GMT -0500)
Custer

Weather History for KTTF - October, 2011

Change the Weather History Date:

Monday, October 31, 2011

  Actual Average Record
Temperature  
Mean Temperature 46 °F -  
Max Temperature 48 °F 56 °F 81 °F (1933)
Min Temperature 44 °F 39 °F 26 °F (1988)
Degree Days  
Heating Degree Days 19    
Moisture  
Dew Point 39 °F    
Average Humidity 76    
Maximum Humidity 100    
Minimum Humidity 58    
Precipitation  
Precipitation 0.00 in - - ()
Sea Level Pressure  
Sea Level Pressure 30.06 in    
Wind  
Wind Speed 7 mph (South)    
Max Wind Speed 12 mph    
Max Gust Speed -    
Visibility 10 miles    
Events Rain    
Averages and records for this station are not official NWS values.
T = Trace of Precipitation, MM = Missing Value Source: NWS Daily Summary

Daily Weather History Graph

Daily Weather History Graph

Search for Another Location

Airport or City:

Trip Planner

Search our weather history database for the weather conditions in past years. The results will help you decide how hot, cold, wet, or windy it might be!

Date:

Astronomy

Oct. 31, 2011 Rise Set
Actual Time 8:04 AM EDT 6:29 PM EDT
Civil Twilight 7:35 AM EDT 6:58 PM EDT
Nautical Twilight 7:02 AM EDT 7:31 PM EDT
Astronomical Twilight 6:30 AM EDT 8:03 PM EDT
Moon 1:13 PM EDT (10/31) 11:02 PM EDT (10/31)
Length of Visible Light 11h 22m
Length of Day
10h 24m
Waxing Crescent, 29% of the Moon is Illuminated
Oct 31
Waxing Crescent
Nov 2
First Quarter
Nov 10
Full
Nov 18
Last Quarter
Nov 25
New

Hourly Weather History & Observations

Time (EDT) Temp. Windchill Dew Point Humidity Pressure Visibility Wind Dir Wind Speed Gust Speed Precip Events Conditions
12:13 AM 48.2 °F - 37.4 °F 66% 30.13 in 10.0 mi South 9.2 mph - N/A Rain Rain
12:34 AM 46.4 °F 43.5 °F 37.4 °F 71% 30.12 in 10.0 mi SE 5.8 mph - N/A   Overcast
12:54 AM 48.2 °F - 35.6 °F 62% 30.11 in 10.0 mi SSE 5.8 mph - N/A   Overcast
1:14 AM 48.2 °F - 37.4 °F 66% 30.10 in 10.0 mi SSE 5.8 mph - N/A   Overcast
1:34 AM 48.2 °F - 37.4 °F 66% 30.10 in 10.0 mi SE 4.6 mph - N/A   Mostly Cloudy
1:54 AM 48.2 °F - 37.4 °F 66% 30.10 in 10.0 mi SSE 8.1 mph - N/A   Mostly Cloudy
2:14 AM 48.2 °F - 35.6 °F 62% 30.09 in 10.0 mi SSE 11.5 mph - N/A   Overcast
2:55 AM 48.2 °F - 33.8 °F 58% 30.09 in 10.0 mi SSE 9.2 mph - N/A   Overcast
3:15 AM 48.2 °F - 33.8 °F 58% 30.08 in 10.0 mi SSE 8.1 mph - N/A   Mostly Cloudy
3:35 AM 48.2 °F - 33.8 °F 58% 30.08 in 10.0 mi SSE 10.4 mph - N/A   Mostly Cloudy
3:55 AM 46.4 °F 41.9 °F 33.8 °F 62% 30.07 in 10.0 mi SSE 9.2 mph - N/A   Overcast
4:10 AM 46.4 °F 42.4 °F 33.8 °F 62% 30.07 in 10.0 mi SSE 8.1 mph - N/A   Overcast
4:31 AM 46.4 °F 42.4 °F 33.8 °F 62% 30.06 in 10.0 mi SSE 8.1 mph - N/A   Overcast
4:51 AM 46.4 °F 42.4 °F 33.8 °F 62% 30.06 in 10.0 mi South 8.1 mph - N/A   Overcast
5:11 AM 46.4 °F 41.1 °F 33.8 °F 62% 30.05 in 10.0 mi South 11.5 mph - N/A   Overcast
5:31 AM 46.4 °F 41.9 °F 33.8 °F 62% 30.05 in 10.0 mi SSE 9.2 mph - N/A   Scattered Clouds
5:51 AM 46.4 °F 41.5 °F 33.8 °F 62% 30.05 in 10.0 mi SSE 10.4 mph - N/A   Mostly Cloudy
6:11 AM 46.4 °F 42.4 °F 33.8 °F 62% 30.05 in 10.0 mi SSE 8.1 mph - N/A   Mostly Cloudy
6:32 AM 46.4 °F 41.9 °F 33.8 °F 62% 30.05 in 10.0 mi South 9.2 mph - N/A   Scattered Clouds
7:12 AM 46.4 °F 42.4 °F 33.8 °F 62% 30.04 in 10.0 mi South 8.1 mph - N/A   Mostly Cloudy
7:52 AM 46.4 °F 42.9 °F 33.8 °F 62% 30.04 in 10.0 mi SSE 6.9 mph - N/A   Overcast
8:12 AM 46.4 °F 42.9 °F 33.8 °F 62% 30.04 in 10.0 mi SSE 6.9 mph - N/A   Overcast
8:33 AM 46.4 °F 42.9 °F 33.8 °F 62% 30.04 in 10.0 mi SSE 6.9 mph - N/A   Overcast
8:53 AM 46.4 °F 42.9 °F 33.8 °F 62% 30.04 in 10.0 mi SSE 6.9 mph - N/A   Mostly Cloudy
9:13 AM 46.4 °F 42.4 °F 33.8 °F 62% 30.04 in 10.0 mi SSE 8.1 mph - N/A   Overcast
9:33 AM 46.4 °F 42.4 °F 33.8 °F 62% 30.04 in 10.0 mi SSE 8.1 mph - N/A   Overcast
9:53 AM 48.2 °F - 35.6 °F 62% 30.04 in 10.0 mi SSE 8.1 mph - N/A   Mostly Cloudy
10:13 AM 48.2 °F - 35.6 °F 62% 30.04 in 10.0 mi South 8.1 mph - N/A   Mostly Cloudy
10:34 AM 48.2 °F - 33.8 °F 58% 30.04 in 10.0 mi South 10.4 mph - N/A   Overcast
10:54 AM 48.2 °F - 33.8 °F 58% 30.05 in 10.0 mi South 10.4 mph - N/A   Mostly Cloudy
11:14 AM 48.2 °F - 35.6 °F 62% 30.05 in 10.0 mi SSW 8.1 mph - N/A   Mostly Cloudy
11:34 AM 48.2 °F - 37.4 °F 66% 30.06 in 10.0 mi SSW 11.5 mph - N/A Rain Light Rain
11:54 AM 46.4 °F 42.9 °F 39.2 °F 76% 30.06 in 7.0 mi SSW 6.9 mph - N/A Rain Light Rain
12:14 PM 46.4 °F 42.4 °F 41.0 °F 81% 30.07 in 10.0 mi South 8.1 mph - N/A Rain Rain
12:35 PM 44.6 °F 42.2 °F 42.8 °F 93% 30.07 in 7.0 mi SSW 4.6 mph - N/A Rain Light Rain
12:55 PM 44.6 °F 43.1 °F 44.6 °F 100% 30.06 in 7.0 mi SE 3.5 mph - N/A Rain Rain
1:15 PM 44.6 °F 42.2 °F 44.6 °F 100% 30.05 in 7.0 mi South 4.6 mph - N/A   Light Drizzle
1:30 PM 46.4 °F 42.4 °F 46.4 °F 100% 30.05 in 10.0 mi South 8.1 mph - N/A   Light Drizzle
1:50 PM 46.4 °F 41.9 °F 46.4 °F 100% 30.05 in 7.0 mi South 9.2 mph - N/A   Drizzle
2:11 PM 44.6 °F 40.7 °F 44.6 °F 100% 30.04 in 7.0 mi SSW 6.9 mph - N/A   Drizzle
2:31 PM 46.4 °F 42.4 °F 46.4 °F 100% 30.04 in 10.0 mi SSW 8.1 mph - N/A   Overcast
2:51 PM 46.4 °F 43.5 °F 46.4 °F 100% 30.04 in 10.0 mi SSW 5.8 mph - N/A   Overcast
3:11 PM 48.2 °F - 46.4 °F 93% 30.04 in 10.0 mi SSW 4.6 mph - N/A   Overcast
3:31 PM 46.4 °F 42.9 °F 44.6 °F 93% 30.04 in 10.0 mi South 6.9 mph - N/A   Overcast
3:51 PM 48.2 °F - 44.6 °F 87% 30.05 in 10.0 mi SSW 4.6 mph - N/A   Overcast
4:12 PM 48.2 °F - 44.6 °F 87% 30.05 in 10.0 mi Calm Calm - N/A   Overcast
4:32 PM 48.2 °F - 44.6 °F 87% 30.05 in 10.0 mi SW 3.5 mph - N/A   Overcast
4:52 PM 48.2 °F - 44.6 °F 87% 30.05 in 10.0 mi WSW 3.5 mph - N/A   Overcast
5:12 PM 48.2 °F - 42.8 °F 82% 30.06 in 10.0 mi Calm Calm - N/A   Overcast
5:32 PM 48.2 °F - 42.8 °F 82% 30.06 in 10.0 mi Calm Calm - N/A   Overcast
5:53 PM 48.2 °F - 44.6 °F 87% 30.07 in 10.0 mi Calm Calm - N/A   Overcast
6:13 PM 46.4 °F - 44.6 °F 93% 30.08 in 10.0 mi Calm Calm - N/A   Overcast
6:33 PM 46.4 °F - 46.4 °F 100% 30.08 in 10.0 mi Calm Calm - N/A   Overcast
6:53 PM 46.4 °F - 44.6 °F 93% 30.09 in 10.0 mi Calm Calm - N/A   Overcast
7:13 PM 46.4 °F - 46.4 °F 100% 30.10 in 10.0 mi Calm Calm - N/A   Overcast
7:34 PM 46.4 °F - 46.4 °F 100% 30.11 in 10.0 mi Calm Calm - N/A   Overcast
7:54 PM 46.4 °F - 46.4 °F 100% 30.12 in 10.0 mi Calm Calm - N/A   Overcast
8:14 PM 46.4 °F - 46.4 °F 100% 30.13 in 10.0 mi Calm Calm - N/A   Overcast
8:34 PM 46.4 °F - 46.4 °F 100% 30.13 in 10.0 mi Calm Calm - N/A   Overcast
8:54 PM 46.4 °F - 46.4 °F 100% 30.13 in 7.0 mi Calm Calm - N/A   Overcast
9:15 PM 44.6 °F - 44.6 °F 100% 30.13 in 7.0 mi Calm Calm - N/A   Mostly Cloudy
9:35 PM 42.8 °F - 42.8 °F 100% 30.14 in 7.0 mi Calm Calm - N/A   Mostly Cloudy
9:55 PM 42.8 °F - 42.8 °F 100% 30.14 in 2.5 mi Calm Calm - N/A   Overcast
10:15 PM 41.0 °F - 41.0 °F 100% 30.15 in 0.5 mi Calm Calm - N/A Fog Fog
10:30 PM 39.2 °F - 39.2 °F 100% 30.15 in 0.2 mi Calm Calm - N/A Fog Fog
11:11 PM 39.2 °F - 39.2 °F 100% 30.16 in 0.8 mi Calm Calm - N/A   Mist
11:31 PM 37.4 °F - 37.4 °F 100% 30.16 in 1.0 mi Calm Calm - N/A   Mist